Location: Unspecified
(0.0000°N, 0.0000°E)
Time: 17:12:07
(UTC+00:00)

Tiangong - Visible Passes

Search period start: 29 May 2024 00:00
Search period end: 08 June 2024 00:00
Orbit: 370 x 373 km, 41.5° (Epoch: 29 May)

Date Brightness Start Highest point End Pass type
(mag) Time Alt. Az. Time Alt. Az. Time Alt. Az.
31 May -1.1 18:54:02 10° SSW 18:56:40 26° SE 18:56:42 25° SE visible
01 Jun -0.7 19:26:12 10° WSW 19:29:04 36° NW 19:30:19 24° N visible
02 Jun -2.2 18:22:00 10° SW 18:25:03 59° SE 18:28:05 10° NE visible
03 Jun 0.9 18:55:14 10° W 18:57:22 17° NW 18:59:30 10° N visible
04 Jun 1.4 04:48:03 10° NNE 04:48:53 11° NE 04:49:42 10° ENE visible
05 Jun -2.0 05:18:08 10° NW 05:21:10 74° NE 05:24:13 10° SE visible
06 Jun 0.4 04:15:33 15° N 04:17:02 21° NE 04:19:28 10° E visible
07 Jun -2.0 04:49:09 44° SW 04:49:13 44° SW 04:52:10 10° SSE visible
